When you browse on this site, cookies collect data to enhance your experience and personalize the content and advertising you see.
Visit our Privacy Policy to learn more. By continuing to use the site, you agree to this use of cookies and data.
  • In Czech Republic
  • List of Countries
  • For 7 days
  • Water Temperature
  • Weather Map
  • Weather Widgets
  • user-avatar
    Login

    Hourly Weather Arvika

    Today, 5 June, Friday

    Time Temperature Precipitation Wind Pressure Humidity
    00:00 +11°C° 0 mm 3 mps 744 mmHg 79%
    01:00 +11°C° 0 mm 3 mps 744 mmHg 83%
    02:00 +11°C° 0 mm 4 mps 743 mmHg 85%
    03:00 +11°C° 0 mm 4 mps 743 mmHg 87%
    04:00 +11°C° 0 mm 4 mps 742 mmHg 89%
    05:00 +11°C° 0 mm 4 mps 742 mmHg 86%
    06:00 +12°C° 0 mm 5 mps 741 mmHg 82%
    07:00 +13°C° 0 mm 5 mps 741 mmHg 78%
    08:00 +14°C° 0.1 mm 5 mps 741 mmHg 74%
    09:00 +15°C° 0.1 mm 5 mps 740 mmHg 69%
    10:00 +15°C° 0.1 mm 5 mps 739 mmHg 65%
    11:00 +16°C° 0.2 mm 6 mps 739 mmHg 62%
    12:00 +16°C° 0.2 mm 6 mps 739 mmHg 60%
    13:00 +17°C° 0.2 mm 6 mps 739 mmHg 57%
    14:00 +16°C° 0.3 mm 6 mps 739 mmHg 63%
    15:00 +15°C° 0.3 mm 5 mps 739 mmHg 69%
    16:00 +14°C° 0.3 mm 5 mps 739 mmHg 75%
    17:00 +13°C° 0.7 mm 4 mps 739 mmHg 81%
    18:00 +12°C° 0.7 mm 3 mps 739 mmHg 88%
    19:00 +12°C° 0.7 mm 2 mps 739 mmHg 94%
    20:00 +12°C° 0.9 mm 2 mps 739 mmHg 95%
    21:00 +10°C° 0.9 mm 3 mps 739 mmHg 96%
    22:00 +10°C° 0.9 mm 3 mps 739 mmHg 96%
    23:00 +10°C° 0.4 mm 3 mps 739 mmHg 97%

    Tomorrow, 6 June, Saturday

    Time Temperature Precipitation Wind Pressure Humidity
    00:00 +10°C° 0.4 mm 2 mps 738 mmHg 97%
    01:00 +10°C° 0.4 mm 2 mps 738 mmHg 98%
    02:00 +10°C° 0.4 mm 2 mps 738 mmHg 98%
    03:00 +10°C° 0.4 mm 2 mps 738 mmHg 98%
    04:00 +11°C° 0.4 mm 1 mps 737 mmHg 98%
    05:00 +12°C° 0.6 mm 1 mps 737 mmHg 96%
    06:00 +12°C° 0.6 mm 1 mps 736 mmHg 95%
    07:00 +11°C° 0.6 mm 0 mps 736 mmHg 94%
    08:00 +12°C° 0.4 mm 0 mps 735 mmHg 89%
    09:00 +14°C° 0.4 mm 1 mps 735 mmHg 83%
    10:00 +15°C° 0.4 mm 1 mps 735 mmHg 78%
    11:00 +16°C° 0.6 mm 1 mps 735 mmHg 75%
    12:00 +18°C° 0.6 mm 1 mps 734 mmHg 72%
    13:00 +19°C° 0.6 mm 1 mps 734 mmHg 69%
    14:00 +17°C° 0.8 mm 2 mps 734 mmHg 70%
    15:00 +17°C° 0.8 mm 2 mps 735 mmHg 71%
    16:00 +17°C° 0.8 mm 3 mps 735 mmHg 71%
    17:00 +16°C° 0.4 mm 3 mps 735 mmHg 75%
    18:00 +14°C° 0.4 mm 4 mps 736 mmHg 78%
    19:00 +13°C° 0.4 mm 4 mps 736 mmHg 81%
    20:00 +12°C° 0.1 mm 4 mps 737 mmHg 84%
    21:00 +12°C° 0.1 mm 4 mps 738 mmHg 87%
    22:00 +11°C° 0.1 mm 4 mps 739 mmHg 90%
    23:00 +11°C° 0.3 mm 4 mps 739 mmHg 90%

    Day after tomorrow, 7 June, Sunday

    Time Temperature Precipitation Wind Pressure Humidity
    00:00 +11°C° 0.3 mm 4 mps 740 mmHg 89%
    01:00 +10°C° 0.3 mm 5 mps 740 mmHg 88%
    02:00 +10°C° 0 mm 4 mps 741 mmHg 89%
    03:00 +8°C° 0 mm 4 mps 742 mmHg 89%
    04:00 +8°C° 0 mm 4 mps 742 mmHg 90%
    05:00 +10°C° 0 mm 4 mps 743 mmHg 85%
    06:00 +11°C° 0 mm 4 mps 743 mmHg 79%
    07:00 +12°C° 0 mm 4 mps 744 mmHg 74%
    08:00 +13°C° 0.2 mm 4 mps 744 mmHg 70%
    09:00 +14°C° 0.2 mm 5 mps 745 mmHg 67%
    10:00 +15°C° 0.2 mm 5 mps 746 mmHg 63%
    11:00 +15°C° 0.6 mm 5 mps 746 mmHg 66%
    12:00 +17°C° 0.6 mm 4 mps 746 mmHg 69%
    13:00 +17°C° 0.6 mm 4 mps 747 mmHg 73%
    14:00 +17°C° 0.7 mm 4 mps 747 mmHg 74%
    15:00 +17°C° 0.7 mm 4 mps 747 mmHg 75%
    16:00 +17°C° 0.7 mm 3 mps 747 mmHg 76%
    17:00 +16°C° 0.2 mm 3 mps 747 mmHg 77%
    18:00 +16°C° 0.2 mm 2 mps 748 mmHg 77%
    19:00 +15°C° 0.2 mm 1 mps 748 mmHg 78%
    20:00 +14°C° 0.3 mm 1 mps 749 mmHg 83%
    21:00 +13°C° 0.3 mm 1 mps 749 mmHg 89%
    22:00 +11°C° 0.3 mm 1 mps 750 mmHg 94%
    23:00 +11°C° 0.1 mm 1 mps 750 mmHg 95%

    8 June, Monday

    Time Temperature Precipitation Wind Pressure Humidity
    00:00 +10°C° 0.1 mm 1 mps 750 mmHg 96%
    01:00 +9°C° 0.1 mm 0 mps 750 mmHg 97%
    02:00 +9°C° 0 mm 0 mps 751 mmHg 97%
    03:00 +9°C° 0 mm 0 mps 751 mmHg 97%
    04:00 +8°C° 0 mm 0 mps 751 mmHg 97%
    05:00 +10°C° 0 mm 0 mps 751 mmHg 92%
    06:00 +13°C° 0 mm 1 mps 751 mmHg 88%
    07:00 +14°C° 0 mm 1 mps 752 mmHg 83%
    08:00 +16°C° 0.2 mm 1 mps 752 mmHg 76%
    09:00 +18°C° 0.2 mm 1 mps 752 mmHg 70%
    10:00 +19°C° 0.2 mm 1 mps 752 mmHg 64%
    11:00 +20°C° 0.4 mm 1 mps 752 mmHg 62%
    12:00 +19°C° 0.4 mm 2 mps 753 mmHg 60%
    13:00 +20°C° 0.4 mm 2 mps 753 mmHg 58%
    14:00 +20°C° 0.4 mm 2 mps 753 mmHg 58%
    15:00 +20°C° 0.4 mm 2 mps 753 mmHg 58%
    16:00 +20°C° 0.4 mm 2 mps 753 mmHg 59%
    17:00 +19°C° 0.1 mm 2 mps 753 mmHg 61%
    18:00 +20°C° 0.1 mm 1 mps 753 mmHg 64%
    19:00 +19°C° 0.1 mm 1 mps 754 mmHg 67%
    20:00 +16°C° 0 mm 1 mps 754 mmHg 75%
    21:00 +14°C° 0 mm 1 mps 755 mmHg 83%
    22:00 +12°C° 0 mm 1 mps 755 mmHg 91%
    23:00 +11°C° 0 mm 1 mps 756 mmHg 91%

    9 June, Tuesday

    Time Temperature Precipitation Wind Pressure Humidity
    00:00 +10°C° 0 mm 0 mps 756 mmHg 92%
    01:00 +9°C° 0 mm 0 mps 756 mmHg 92%
    02:00 +9°C° 0 mm 0 mps 757 mmHg 91%
    03:00 +9°C° 0 mm 0 mps 757 mmHg 90%
    04:00 +9°C° 0 mm 0 mps 757 mmHg 90%
    05:00 +11°C° 0 mm 0 mps 757 mmHg 81%
    06:00 +13°C° 0 mm 0 mps 757 mmHg 73%
    07:00 +16°C° 0 mm 0 mps 758 mmHg 64%
    08:00 +18°C° 0 mm 0 mps 758 mmHg 57%
    09:00 +20°C° 0 mm 0 mps 758 mmHg 49%
    10:00 +22°C° 0 mm 0 mps 758 mmHg 42%
    11:00 +23°C° 0 mm 0 mps 758 mmHg 38%
    12:00 +26°C° 0 mm 1 mps 758 mmHg 35%
    13:00 +26°C° 0 mm 1 mps 758 mmHg 32%
    14:00 +26°C° 0 mm 1 mps 758 mmHg 32%
    15:00 +26°C° 0 mm 1 mps 758 mmHg 32%
    16:00 +26°C° 0 mm 1 mps 758 mmHg 31%
    17:00 +25°C° 0 mm 1 mps 758 mmHg 37%
    18:00 +24°C° 0 mm 1 mps 758 mmHg 42%
    19:00 +21°C° 0 mm 2 mps 758 mmHg 48%
    20:00 +20°C° 0 mm 1 mps 758 mmHg 55%
    21:00 +18°C° 0 mm 1 mps 759 mmHg 63%
    22:00 +14°C° 0 mm 1 mps 759 mmHg 70%
    23:00 +14°C° 0 mm 1 mps 759 mmHg 70%

    10 June, Wednesday

    Time Temperature Precipitation Wind Pressure Humidity
    00:00 +13°C° 0 mm 1 mps 759 mmHg 70%
    01:00 +11°C° 0 mm 0 mps 759 mmHg 71%
    02:00 +11°C° 0 mm 0 mps 759 mmHg 70%
    03:00 +11°C° 0 mm 0 mps 760 mmHg 70%
    04:00 +11°C° 0 mm 0 mps 760 mmHg 69%
    05:00 +14°C° 0 mm 0 mps 760 mmHg 63%
    06:00 +16°C° 0 mm 0 mps 760 mmHg 56%
    07:00 +19°C° 0 mm 0 mps 760 mmHg 49%
    08:00 +21°C° 0 mm 0 mps 760 mmHg 45%
    09:00 +23°C° 0 mm 0 mps 760 mmHg 40%
    10:00 +25°C° 0 mm 0 mps 760 mmHg 36%
    11:00 +26°C° 0 mm 0 mps 760 mmHg 34%
    12:00 +27°C° 0 mm 0 mps 760 mmHg 32%
    13:00 +28°C° 0 mm 0 mps 759 mmHg 30%
    14:00 +27°C° 0 mm 0 mps 759 mmHg 31%
    15:00 +27°C° 0 mm 0 mps 759 mmHg 31%
    16:00 +27°C° 0 mm 0 mps 759 mmHg 31%
    17:00 +27°C° 0 mm 1 mps 759 mmHg 37%
    18:00 +26°C° 0 mm 1 mps 759 mmHg 43%
    19:00 +24°C° 0 mm 1 mps 759 mmHg 49%
    20:00 +22°C° 0 mm 1 mps 760 mmHg 55%
    21:00 +20°C° 0 mm 1 mps 760 mmHg 61%
    22:00 +18°C° 0 mm 1 mps 760 mmHg 67%
    23:00 +16°C° 0 mm 1 mps 760 mmHg 69%
    Show more